Regional Weather Roundup
Issued by NWS

Home | Current Version | Previous Version | Text Only | Print | Product List | Glossary Off
Versions: 1 2 3 4 5 6 7 8 9 10 11 12 13 14 15 16 17 18 19 20 21 22 23 24 25 26 27 28 29 30 31 32 33 34 35 36 37 38 39 40 41 42 43 44 45 46 47 48 49 50

000
ASUS45 KSLC 200110
RWRUT

UTAH REGIONAL WEATHER ROUNDUP
NATIONAL WEATHER SERVICE SALT LAKE CITY UT
700 PM MDT SUN OCT 19 2014

UTZ001>011-023>025-200200-

NORTHERN UTAH

CITY           SKY/WX    TMP DP  RH WIND       PRES   REMARKS
BRIGHAM CITY   CLEAR     66  35  32 CALM      30.03S
HILL AFB       CLEAR     65  38  36 N6        30.04F
LOGAN          CLEAR     64  41  42 SW6       30.03S
OGDEN          CLEAR     63  36  36 NW5       30.02F
PROVO AIRPORT  PTCLDY    61  37  41 VRB6      30.02F
SALT LAKE CITY CLEAR     63  44  50 W6        30.02R
VERNAL         CLEAR     58  38  47 W6        30.07F
WENDOVER       CLEAR     63  36  36 CALM      30.03S
HEBER CITY     CLEAR     59  32  36 CALM      30.07R
WEST JORDAN    CLEAR     63  45  51 W3        30.05S

$$

UTZ012>022-026-027-200200-

SOUTHERN/CENTRAL UTAH

CITY           SKY/WX    TMP DP  RH WIND       PRES   REMARKS
BLANDING       PTCLDY    63  37  37 E9G18     30.19R
BRYCE CANYON   PTCLDY    49  32  52 S8        30.18R
CEDAR CITY     MOCLDY    64  39  39 CALM      30.04R
DELTA          CLEAR     68  32  26 CALM      30.02R
HANKSVILLE       N/A     70  32  24 CALM      30.04R
MILFORD        CLEAR     65  34  31 N9        30.02R
MOAB/CYNLANDS  CLEAR     66  33  29 CALM      30.01R
PRICE            N/A     66  29  24 S3        30.09S
ST GEORGE      CLEAR     81  36  19 W7        29.89S
KANAB            N/A     64  32  29 E7        30.05R

$$

REGIONAL REPORTS     COLORADO/ARIZONA

CITY           SKY/WX    TMP DP  RH WIND       PRES   REMARKS
CRAIG, CO      CLEAR     51  35  54 SW5       30.13R
GRAND JUNCTION CLEAR     64  34  32 NW6       30.03R
RIFLE          PTCLDY    63  35  35 S3        30.07R
MONTROSE       CLEAR     62  40  44 CALM      30.10R
CORTEZ         MOCLDY    55  48  77 CALM      30.16R
PAGE, AZ       NOT AVBL
GRAND CANYON   PTCLDY    50  34  54 NE5       30.13R
KINGMAN        MOCLDY    74  44  34 NE5       29.93R
FLAGSTAFF      MOCLDY    54  40  59 CALM      30.15R

$$

REGIONAL REPORTS    NEVADA/IDAHO/WYOMING

CITY           SKY/WX    TMP DP  RH WIND       PRES   REMARKS
LAS VEGAS, NV  PTCLDY    85  38  18 S6        29.80S
ELY            LGT RAIN  66  36  32 S13       30.08R
ELKO           CLEAR     69  30  23 CALM      29.98S
POCATELLO, ID  CLEAR     62  34  35 NE3       30.03S
BURLEY         CLEAR     65  36  34 E9        29.96F
EVANSTON, WY   CLEAR     59  27  29 N6        30.16S
ROCK SPRINGS   CLEAR     60  26  27 N5        30.15S
KEMMERER       CLEAR     55  27  33 CALM      30.18S

$$



USA.gov is the U.S. government's official web portal to all federal, state and local government web resources and services.